Weather History for St. Johnsbury, VT

Change the Weather History Date:

Wednesday, August 7, 2013

  Actual Average Record
Temperature  
Mean Temperature 64 °F 69 °F  
Max Temperature 77 °F 80 °F 96 °F (1918)
Min Temperature 50 °F 58 °F 42 °F (1964)
Degree Days  
Heating Degree Days 2 1  
Month to date heating degree days 6  
Since 1 June heating degree days 93  
Since 1 July heating degree days 21  
Cooling Degree Days 0 5  
Month to date cooling degree days 6 35  
Year to date cooling degree days 294 312  
Since 1 June cooling degree days 278 294  
Growing Degree Days 14 (Base 50)    
Moisture  
Dew Point 53 °F    
Average Humidity 71    
Maximum Humidity 96    
Minimum Humidity 46    
Precipitation  
Precipitation 0.00 in 0.15 in 1.67 in (1990)
Month to date precipitation 0.27 1.12  
Year to date precipitation 22.71 22.66  
Sea Level Pressure  
Sea Level Pressure 30.10 in    
Wind  
Wind Speed - (North)    
Max Wind Speed -    
Max Gust Speed -    
T = Trace of Precipitation, MM = Missing Value Source: NWS Daily Summary

Daily Weather History Graph

Daily Weather History Graph

Search for Another Location

Airport:

Trip Planner

Search our weather history database for the weather conditions in past years. The results will help you decide how hot, cold, wet, or windy it might be!

Date:

Astronomy

Aug. 07, 2013 Rise Set
Actual Time 5:42 AM EDT 8:04 PM EDT
Civil Twilight 5:09 AM EDT 8:37 PM EDT
Nautical Twilight 4:29 AM EDT 9:17 PM EDT
Astronomical Twilight 3:43 AM EDT 10:02 PM EDT
Moon 6:32 AM EDT (8/7) 8:04 PM EDT (8/7)
Length of Visible Light 15h 27m
Length of Day
14h 22m
New Moon, 1% of the Moon is Illuminated
Aug 7
New Moon
Aug 14
First Quarter
Aug 20
Full
Aug 28
Last Quarter
Sep 5
New

Hourly Weather History & Observations

Time (EDT) Temp. Dew Point Humidity Pressure Visibility Wind Dir Wind Speed Gust Speed Precip Events Conditions
12:54 AM 54.0 °F 52.0 °F 93% 30.13 in - North - - N/A   Unknown
1:54 AM 53.1 °F 51.1 °F 93% 30.13 in - North - - N/A   Unknown
2:54 AM 51.1 °F 50.0 °F 96% 30.14 in - North - - N/A   Unknown
3:54 AM 51.1 °F 50.0 °F 96% 30.15 in - North - - N/A   Unknown
4:54 AM 50.0 °F 48.9 °F 96% 30.15 in - North - - N/A   Unknown
5:54 AM 50.0 °F 48.9 °F 96% 30.16 in - North - - N/A   Unknown
6:54 AM 51.1 °F 48.9 °F 92% 30.16 in - North - - N/A   Unknown
7:54 AM 55.0 °F 51.1 °F 86% 30.16 in - North - - N/A   Unknown
8:54 AM 57.0 °F 52.0 °F 83% 30.16 in - North - - N/A   Unknown
9:54 AM 63.0 °F 55.0 °F 75% 30.14 in - North - - N/A   Unknown
10:54 AM 68.0 °F 55.9 °F 65% 30.12 in - North - - N/A   Unknown
11:54 AM 73.0 °F 57.0 °F 57% 30.10 in - North - - N/A   Unknown
12:54 PM 73.9 °F 55.0 °F 52% 30.09 in - North - - N/A   Unknown
1:54 PM 75.0 °F 55.0 °F 50% 30.08 in - North - - N/A   Unknown
2:54 PM 75.0 °F 55.0 °F 50% 30.08 in - North - - N/A   Unknown
3:54 PM 77.0 °F 55.0 °F 47% 30.06 in - North - - N/A   Unknown
4:54 PM 75.0 °F 54.0 °F 48% 30.05 in - North - - N/A   Unknown
5:54 PM 75.0 °F 55.0 °F 50% 30.04 in - North - - N/A   Unknown
6:54 PM 73.9 °F 55.0 °F 52% 30.03 in - North - - N/A   Unknown
7:54 PM 71.1 °F 55.0 °F 57% 30.03 in - North - - N/A   Unknown
9:54 PM 69.1 °F 54.0 °F 58% 30.03 in - North - - N/A   Unknown
10:54 PM 68.0 °F 54.0 °F 61% 30.03 in - North - - N/A   Unknown
11:54 PM 68.0 °F 55.0 °F 63% 30.01 in - North - - N/A   Unknown